| time (UTC) | temp F | wind direction | speed MPH | gust MPH | rain 1hr in | rain 24hr in | rain mn in | humidity % | barometer mb |
| 20260505010834 | 54 | 276 | 0.0 | 1.0 | 0.00 | 0.02 | 0.02 | 67 | 1007.5 |
| 20260505010331 | 55 | 276 | 0.0 | 1.0 | 0.00 | 0.02 | 0.02 | 67 | 1007.5 |
| 20260505010001 | 54 | 276 | 0.0 | 1.0 | 0.00 | 0.02 | 0.02 | 67 | 1008.2 |
| 20260505005831 | 55 | 276 | 0.0 | 1.0 | 0.00 | 0.02 | 0.02 | 68 | 1007.5 |
| 20260505005330 | 55 | 276 | 0.0 | 1.0 | 0.00 | 0.02 | 0.02 | 68 | 1007.5 |
| 20260505004830 | 56 | 276 | 0.0 | 1.0 | 0.00 | 0.02 | 0.02 | 66 | 1007.4 |
| 20260505004558 | 55 | 276 | 0.0 | 1.0 | 0.00 | 0.02 | 0.02 | 65 | 1008.1 |
| 20260505004328 | 56 | 276 | 0.0 | 1.0 | 0.00 | 0.02 | 0.02 | 64 | 1007.4 |
| 20260505003829 | 56 | 276 | 0.0 | 3.0 | 0.00 | 0.02 | 0.02 | 63 | 1007.4 |
| 20260505003326 | 57 | 276 | 1.0 | 3.0 | 0.00 | 0.02 | 0.02 | 61 | 1007.2 |
| 20260505003149 | 57 | 276 | 0.0 | 3.0 | 0.00 | 0.02 | 0.02 | 61 | 1007.9 |
| 20260505002824 | 56 | 276 | 0.0 | 2.0 | 0.00 | 0.02 | 0.02 | 59 | 1007.2 |
| 20260505001823 | 55 | 276 | 0.0 | 0.0 | 0.00 | 0.02 | 0.02 | 65 | 1007.1 |
| 20260505001545 | 55 | 276 | 0.0 | 0.0 | 0.00 | 0.02 | 0.02 | 65 | 1007.7 |
| 20260505001320 | 55 | 276 | 0.0 | 0.0 | 0.00 | 0.02 | 0.02 | 64 | 1007.0 |
| 20260505000817 | 56 | 276 | 0.0 | 0.0 | 0.00 | 0.02 | 0.02 | 64 | 1006.8 |
| 20260505000318 | 56 | 276 | 0.0 | 0.0 | 0.00 | 0.02 | 0.02 | 66 | 1006.7 |
| 20260505000141 | 56 | 276 | 0.0 | 0.0 | 0.00 | 0.02 | 0.02 | 63 | 1007.5 |
| 20260504235817 | 57 | 276 | 0.0 | 0.0 | 0.00 | 0.02 | 0.02 | 62 | 1006.7 |
| 20260504235316 | 57 | 276 | 0.0 | 0.0 | 0.00 | 0.02 | 0.02 | 62 | 1006.6 |
| 20260504234815 | 58 | 276 | 0.0 | 0.0 | 0.00 | 0.02 | 0.02 | 59 | 1006.5 |
| 20260504234527 | 58 | 276 | 0.0 | 0.0 | 0.00 | 0.02 | 0.02 | 55 | 1007.2 |
| 20260504234311 | 58 | 276 | 0.0 | 1.0 | 0.00 | 0.02 | 0.02 | 55 | 1006.4 |
| 20260504233310 | 59 | 276 | 1.0 | 2.0 | 0.00 | 0.02 | 0.02 | 52 | 1006.3 |
| 20260504233118 | 59 | 276 | 0.0 | 2.0 | 0.00 | 0.02 | 0.02 | 55 | 1006.9 |
| 20260504232809 | 59 | 276 | 1.0 | 2.0 | 0.00 | 0.02 | 0.02 | 54 | 1006.2 |
| 20260504232309 | 59 | 276 | 0.0 | 2.0 | 0.00 | 0.02 | 0.02 | 53 | 1006.2 |
| 20260504231809 | 60 | 276 | 0.0 | 0.0 | 0.00 | 0.02 | 0.02 | 55 | 1006.1 |
| 20260504231513 | 60 | 276 | 0.0 | 4.0 | 0.00 | 0.02 | 0.02 | 54 | 1006.7 |
| 20260504231309 | 60 | 276 | 0.0 | 4.0 | 0.00 | 0.02 | 0.02 | 53 | 1006.1 |
| 20260504230308 | 62 | 276 | 0.0 | 0.0 | 0.00 | 0.02 | 0.02 | 53 | 1006.0 |
| 20260504230108 | 62 | 276 | 0.0 | 1.0 | 0.00 | 0.02 | 0.02 | 52 | 1006.6 |
| 20260504225808 | 63 | 276 | 0.0 | 2.0 | 0.00 | 0.02 | 0.02 | 51 | 1006.0 |
| 20260504225308 | 64 | 276 | 0.0 | 2.0 | 0.00 | 0.02 | 0.02 | 48 | 1006.0 |
| 20260504224510 | 64 | 276 | 0.0 | 2.0 | 0.00 | 0.02 | 0.02 | 46 | 1006.6 |
| 20260504224309 | 64 | 276 | 0.0 | 3.0 | 0.00 | 0.02 | 0.02 | 46 | 1005.8 |
| 20260504223809 | 64 | 276 | 1.0 | 3.0 | 0.00 | 0.02 | 0.02 | 43 | 1005.7 |
| 20260504223303 | 64 | 276 | 1.0 | 3.0 | 0.00 | 0.02 | 0.02 | 46 | 1005.7 |
| 20260504223026 | 64 | 276 | 0.0 | 3.0 | 0.00 | 0.02 | 0.02 | 46 | 1006.4 |
| 20260504222301 | 65 | 276 | 1.0 | 5.0 | 0.00 | 0.02 | 0.02 | 43 | 1005.7 |
| 20260504221801 | 65 | 276 | 1.0 | 5.0 | 0.00 | 0.02 | 0.02 | 42 | 1005.7 |
| 20260504221516 | 64 | 276 | 1.0 | 4.0 | 0.00 | 0.02 | 0.02 | 42 | 1006.4 |
| 20260504221301 | 65 | 276 | 2.0 | 4.0 | 0.00 | 0.02 | 0.02 | 43 | 1005.8 |
| 20260504220801 | 65 | 276 | 1.0 | 6.0 | 0.00 | 0.02 | 0.02 | 42 | 1005.8 |
| 20260504220301 | 65 | 276 | 1.0 | 6.0 | 0.00 | 0.02 | 0.02 | 42 | 1005.8 |
| 20260504220110 | 65 | 276 | 0.0 | 4.0 | 0.00 | 0.02 | 0.02 | 41 | 1006.5 |
| 20260504215802 | 65 | 276 | 1.0 | 4.0 | 0.00 | 0.02 | 0.02 | 44 | 1005.8 |
| 20260504215301 | 66 | 276 | 1.0 | 5.0 | 0.00 | 0.02 | 0.02 | 45 | 1005.9 |
| 20260504214801 | 65 | 276 | 1.0 | 5.0 | 0.00 | 0.02 | 0.02 | 45 | 1005.9 |
| 20260504214506 | 64 | 276 | 1.0 | 5.0 | 0.00 | 0.02 | 0.02 | 45 | 1006.6 |
| 20260504214301 | 65 | 276 | 0.0 | 4.0 | 0.00 | 0.02 | 0.02 | 46 | 1005.8 |
| 20260504213801 | 64 | 276 | 0.0 | 2.0 | 0.00 | 0.02 | 0.02 | 45 | 1005.9 |
| 20260504213148 | 63 | 276 | 0.0 | 2.0 | 0.00 | 0.02 | 0.02 | 53 | 1006.7 |
| 20260504212801 | 63 | 276 | 0.0 | 2.0 | 0.00 | 0.02 | 0.02 | 53 | 1006.0 |
| 20260504212301 | 63 | 276 | 1.0 | 3.0 | 0.00 | 0.02 | 0.02 | 48 | 1006.0 |
| 20260504211802 | 63 | 276 | 1.0 | 3.0 | 0.00 | 0.02 | 0.02 | 47 | 1006.0 |
| 20260504211511 | 63 | 276 | 1.0 | 6.0 | 0.00 | 0.02 | 0.02 | 48 | 1006.8 |
| 20260504211301 | 63 | 276 | 1.0 | 6.0 | 0.00 | 0.02 | 0.02 | 48 | 1006.0 |
| 20260504210802 | 63 | 276 | 1.0 | 6.0 | 0.00 | 0.02 | 0.02 | 49 | 1006.0 |
| 20260504210301 | 63 | 276 | 0.0 | 4.0 | 0.00 | 0.02 | 0.02 | 47 | 1006.1 |
| 20260504210104 | 62 | 276 | 0.0 | 2.0 | 0.00 | 0.02 | 0.02 | 50 | 1006.8 |
| 20260504205803 | 63 | 276 | 1.0 | 3.0 | 0.00 | 0.02 | 0.02 | 49 | 1006.1 |
| 20260504205303 | 63 | 276 | 1.0 | 5.0 | 0.00 | 0.02 | 0.02 | 47 | 1006.0 |
| 20260504204802 | 63 | 276 | 1.0 | 5.0 | 0.00 | 0.02 | 0.02 | 47 | 1006.1 |
| 20260504204650 | 62 | 276 | 1.0 | 7.0 | 0.00 | 0.02 | 0.02 | 47 | 1006.7 |
| 20260504204302 | 63 | 276 | 2.0 | 7.0 | 0.00 | 0.02 | 0.02 | 49 | 1006.0 |
| 20260504203302 | 62 | 276 | 3.0 | 9.0 | 0.00 | 0.02 | 0.02 | 49 | 1006.1 |
| 20260504203056 | 61 | 276 | 5.0 | 9.0 | 0.00 | 0.02 | 0.02 | 48 | 1006.9 |
| 20260504202802 | 62 | 276 | 2.0 | 6.0 | 0.00 | 0.02 | 0.02 | 49 | 1006.2 |
| 20260504202304 | 62 | 276 | 2.0 | 8.0 | 0.00 | 0.02 | 0.02 | 50 | 1006.1 |
| 20260504201801 | 61 | 276 | 2.0 | 8.0 | 0.00 | 0.02 | 0.02 | 50 | 1006.1 |
| 20260504201642 | 61 | 276 | 2.0 | 6.0 | 0.00 | 0.02 | 0.02 | 50 | 1006.8 |
| 20260504201300 | 61 | 276 | 1.0 | 7.0 | 0.00 | 0.02 | 0.02 | 52 | 1006.2 |
| 20260504200301 | 60 | 276 | 2.0 | 4.0 | 0.00 | 0.02 | 0.02 | 57 | 1006.4 |
| 20260504200032 | 60 | 276 | 0.0 | 3.0 | 0.00 | 0.02 | 0.02 | 59 | 1007.0 |
| 20260504195802 | 60 | 276 | 1.0 | 3.0 | 0.00 | 0.02 | 0.02 | 59 | 1006.3 |
| 20260504195304 | 59 | 276 | 0.0 | 1.0 | 0.00 | 0.02 | 0.02 | 58 | 1006.3 |
| 20260504194802 | 58 | 276 | 0.0 | 1.0 | 0.00 | 0.02 | 0.02 | 60 | 1006.4 |
| 20260504194627 | 58 | 276 | 0.0 | 1.0 | 0.00 | 0.02 | 0.02 | 64 | 1007.2 |
| 20260504194303 | 58 | 276 | 0.0 | 1.0 | 0.00 | 0.02 | 0.02 | 67 | 1006.4 |
| 20260504193801 | 58 | 276 | 0.0 | 1.0 | 0.00 | 0.02 | 0.02 | 65 | 1006.5 |
| 20260504193301 | 58 | 276 | 0.0 | 1.0 | 0.00 | 0.02 | 0.02 | 65 | 1006.6 |
| 20260504193015 | 57 | 276 | 0.0 | 1.0 | 0.00 | 0.02 | 0.02 | 64 | 1007.3 |
| 20260504192802 | 58 | 276 | 0.0 | 0.0 | 0.00 | 0.02 | 0.02 | 65 | 1006.6 |
| 20260504192304 | 58 | 276 | 0.0 | 0.0 | 0.00 | 0.02 | 0.02 | 65 | 1006.6 |
| 20260504191802 | 57 | 276 | 0.0 | 0.0 | 0.00 | 0.02 | 0.02 | 66 | 1006.6 |
| 20260504191604 | 57 | 276 | 0.0 | 0.0 | 0.00 | 0.02 | 0.02 | 67 | 1007.5 |
| 20260504191302 | 57 | 276 | 0.0 | 0.0 | 0.00 | 0.02 | 0.02 | 67 | 1006.7 |
| 20260504190802 | 56 | 276 | 0.0 | 0.0 | 0.00 | 0.02 | 0.02 | 65 | 1006.6 |
| 20260504190302 | 56 | 276 | 0.0 | 1.0 | 0.00 | 0.02 | 0.02 | 69 | 1006.8 |
| 20260504190201 | 56 | 276 | 0.0 | 1.0 | 0.00 | 0.02 | 0.02 | 70 | 1007.5 |
| 20260504185802 | 56 | 276 | 0.0 | 1.0 | 0.00 | 0.02 | 0.02 | 68 | 1006.7 |
| 20260504185301 | 56 | 276 | 0.0 | 0.0 | 0.00 | 0.02 | 0.02 | 69 | 1006.8 |
| 20260504184600 | 55 | 276 | 0.0 | 0.0 | 0.00 | 0.02 | 0.02 | 72 | 1007.7 |
| 20260504184302 | 55 | 276 | 0.0 | 0.0 | 0.00 | 0.02 | 0.02 | 72 | 1006.8 |
| 20260504183800 | 55 | 276 | 0.0 | 1.0 | 0.00 | 0.02 | 0.02 | 72 | 1006.8 |
| 20260504183301 | 55 | 276 | 0.0 | 1.0 | 0.00 | 0.02 | 0.02 | 72 | 1006.9 |
| 20260504183144 | 54 | 276 | 0.0 | 1.0 | 0.00 | 0.02 | 0.02 | 72 | 1007.8 |
| 20260504182802 | 55 | 276 | 0.0 | 2.0 | 0.00 | 0.02 | 0.02 | 74 | 1006.9 |
| 20260504182304 | 54 | 276 | 0.0 | 2.0 | 0.00 | 0.02 | 0.02 | 70 | 1006.9 |
| 20260504181801 | 54 | 276 | 0.0 | 2.0 | 0.00 | 0.02 | 0.02 | 73 | 1007.0 |
| 20260504181520 | 53 | 276 | 0.0 | 2.0 | 0.00 | 0.02 | 0.02 | 75 | 1007.9 |
| 20260504180801 | 54 | 276 | 1.0 | 3.0 | 0.00 | 0.02 | 0.02 | 77 | 1007.1 |
| 20260504180302 | 53 | 276 | 1.0 | 3.0 | 0.00 | 0.02 | 0.02 | 76 | 1007.2 |
| 20260504180131 | 53 | 276 | 1.0 | 3.0 | 0.00 | 0.02 | 0.02 | 78 | 1008.0 |
| 20260504175801 | 53 | 276 | 1.0 | 2.0 | 0.00 | 0.02 | 0.02 | 76 | 1007.2 |
| 20260504175303 | 53 | 276 | 1.0 | 3.0 | 0.00 | 0.02 | 0.02 | 79 | 1007.2 |
| 20260504174531 | 53 | 276 | 1.0 | 3.0 | 0.00 | 0.02 | 0.02 | 78 | 1008.0 |
| 20260504174302 | 53 | 276 | 0.0 | 1.0 | 0.01 | 0.02 | 0.02 | 78 | 1007.1 |
| 20260504173301 | 52 | 276 | 0.0 | 0.0 | 0.01 | 0.02 | 0.02 | 80 | 1007.2 |
| 20260504173131 | 51 | 276 | 0.0 | 0.0 | 0.01 | 0.02 | 0.02 | 80 | 1008.1 |
| 20260504172801 | 52 | 276 | 0.0 | 0.0 | 0.01 | 0.02 | 0.02 | 80 | 1007.3 |
| 20260504171801 | 51 | 276 | 0.0 | 0.0 | 0.01 | 0.02 | 0.02 | 83 | 1007.3 |
| 20260504171532 | 50 | 276 | 0.0 | 0.0 | 0.01 | 0.02 | 0.02 | 85 | 1008.1 |
| 20260504171302 | 51 | 276 | 0.0 | 0.0 | 0.01 | 0.02 | 0.02 | 85 | 1007.2 |
| 20260504170801 | 50 | 276 | 0.0 | 0.0 | 0.02 | 0.02 | 0.02 | 84 | 1007.4 |
| 20260504170301 | 50 | 276 | 0.0 | 0.0 | 0.02 | 0.02 | 0.02 | 86 | 1007.4 |
| 20260504170129 | 49 | 276 | 0.0 | 0.0 | 0.02 | 0.02 | 0.02 | 86 | 1008.3 |
| 20260504160301 | 55 | 276 | 1.0 | 3.0 | 0.00 | 0.00 | 0.00 | 65 | 1006.8 |
| 20260504150801 | 57 | 276 | 2.0 | 7.0 | 0.00 | 0.00 | 0.00 | 57 | 1006.2 |
| 20260504150301 | 57 | 276 | 2.0 | 7.0 | 0.00 | 0.00 | 0.00 | 55 | 1006.3 |
| 20260504141301 | 53 | 276 | 2.0 | 7.0 | 0.00 | 0.00 | 0.00 | 62 | 1006.9 |
| 20260504140800 | 53 | 276 | 2.0 | 6.0 | 0.00 | 0.00 | 0.00 | 62 | 1007.1 |
| 20260504140302 | 52 | 276 | 2.0 | 6.0 | 0.00 | 0.00 | 0.00 | 62 | 1007.1 |
| 20260504130803 | 49 | 276 | 2.0 | 7.0 | 0.00 | 0.00 | 0.00 | 64 | 1007.9 |
| 20260504120302 | 41 | 276 | 0.0 | 4.0 | 0.00 | 0.01 | 0.00 | 71 | 1008.5 |
| 20260504110301 | 37 | 276 | 0.0 | 1.0 | 0.00 | 0.03 | 0.00 | 80 | 1008.4 |
| 20260504100302 | 38 | 276 | 0.0 | 1.0 | 0.00 | 0.05 | 0.00 | 75 | 1008.4 |
| 20260504100153 | 37 | 276 | 0.0 | 1.0 | 0.00 | 0.06 | 0.00 | 75 | 1009.5 |
| 20260504090138 | 30 | 276 | 0.0 | 0.0 | 0.00 | 0.06 | 0.00 | 88 | 1009.4 |
| 20260504081801 | 31 | 276 | 0.0 | 0.0 | 0.00 | 0.06 | 0.00 | 86 | 1008.3 |
| 20260504081510 | 30 | 276 | 0.0 | 0.0 | 0.00 | 0.06 | 0.00 | 87 | 1009.2 |
| 20260504081300 | 31 | 276 | 0.0 | 0.0 | 0.00 | 0.06 | 0.00 | 87 | 1008.3 |
| 20260504080258 | 30 | 276 | 0.0 | 0.0 | 0.00 | 0.06 | 0.00 | 86 | 1008.2 |
| 20260504070254 | 31 | 276 | 0.0 | 0.0 | 0.00 | 0.06 | 0.00 | 85 | 1008.4 |
| 20260504060229 | 34 | 276 | 0.0 | 2.0 | 0.00 | 0.06 | 0.00 | 78 | 1007.8 |
| 20260504050708 | 38 | 276 | 1.0 | 2.0 | 0.00 | 0.06 | 0.00 | 68 | 1007.9 |
| 20260504050207 | 38 | 276 | 1.0 | 2.0 | 0.00 | 0.06 | 0.00 | 69 | 1008.0 |
| 20260504050200 | 38 | 276 | 0.0 | 2.0 | 0.00 | 0.06 | 0.06 | 69 | 1008.9 |
| 20260504045704 | 38 | 276 | 1.0 | 2.0 | 0.00 | 0.06 | 0.00 | 66 | 1008.0 |
| 20260504045204 | 38 | 276 | 1.0 | 2.0 | 0.00 | 0.06 | 0.00 | 67 | 1008.0 |
| 20260504044702 | 38 | 276 | 1.0 | 2.0 | 0.00 | 0.06 | 0.00 | 67 | 1008.0 |
| 20260504044606 | 38 | 276 | 1.0 | 2.0 | 0.00 | 0.06 | 0.06 | 68 | 1008.9 |
| 20260504044203 | 38 | 276 | 1.0 | 2.0 | 0.00 | 0.06 | 0.00 | 71 | 1008.0 |
| 20260504043702 | 37 | 276 | 0.0 | 1.0 | 0.00 | 0.06 | 0.00 | 73 | 1007.9 |
| 20260504043203 | 37 | 276 | 0.0 | 0.0 | 0.00 | 0.06 | 0.00 | 74 | 1007.9 |
| 20260504043201 | 36 | 276 | 0.0 | 0.0 | 0.00 | 0.07 | 0.06 | 74 | 1008.9 |
| 20260504042201 | 38 | 276 | 0.0 | 1.0 | 0.00 | 0.06 | 0.00 | 72 | 1007.9 |
| 20260504041702 | 39 | 276 | 0.0 | 1.0 | 0.00 | 0.06 | 0.00 | 70 | 1007.8 |
| 20260504041545 | 38 | 276 | 0.0 | 1.0 | 0.00 | 0.07 | 0.06 | 69 | 1008.8 |
| 20260504040700 | 40 | 276 | 1.0 | 1.0 | 0.00 | 0.06 | 0.00 | 65 | 1007.7 |
| 20260504040140 | 40 | 276 | 0.0 | 2.0 | 0.00 | 0.07 | 0.06 | 66 | 1008.8 |
| 20260504035702 | 40 | 276 | 1.0 | 2.0 | 0.00 | 0.07 | 0.06 | 64 | 1007.7 |
| 20260504035203 | 40 | 276 | 0.0 | 2.0 | 0.00 | 0.07 | 0.06 | 64 | 1007.7 |
| 20260504034544 | 40 | 276 | 0.0 | 0.0 | 0.00 | 0.07 | 0.06 | 63 | 1008.8 |
| 20260504034203 | 40 | 276 | 0.0 | 0.0 | 0.00 | 0.07 | 0.06 | 65 | 1007.8 |
| 20260504033702 | 39 | 276 | 0.0 | 0.0 | 0.00 | 0.07 | 0.06 | 68 | 1007.8 |
| 20260504033203 | 40 | 276 | 0.0 | 0.0 | 0.00 | 0.07 | 0.06 | 66 | 1007.9 |
| 20260504033130 | 39 | 276 | 0.0 | 0.0 | 0.00 | 0.07 | 0.06 | 66 | 1008.9 |
| 20260504032702 | 40 | 276 | 0.0 | 0.0 | 0.00 | 0.07 | 0.06 | 64 | 1007.9 |
| 20260504032203 | 40 | 276 | 0.0 | 0.0 | 0.00 | 0.07 | 0.06 | 67 | 1007.8 |
| 20260504031702 | 40 | 276 | 0.0 | 0.0 | 0.00 | 0.07 | 0.06 | 66 | 1007.8 |
| 20260504031522 | 39 | 276 | 0.0 | 0.0 | 0.00 | 0.07 | 0.06 | 66 | 1008.7 |
| 20260504030702 | 40 | 276 | 0.0 | 0.0 | 0.00 | 0.07 | 0.06 | 67 | 1007.7 |
| 20260504030201 | 40 | 276 | 0.0 | 0.0 | 0.00 | 0.07 | 0.06 | 66 | 1007.7 |
| 20260504030112 | 39 | 276 | 0.0 | 0.0 | 0.00 | 0.07 | 0.06 | 66 | 1008.8 |
| 20260504025702 | 40 | 276 | 0.0 | 0.0 | 0.00 | 0.07 | 0.06 | 66 | 1007.7 |
| 20260504024658 | 40 | 276 | 0.0 | 0.0 | 0.00 | 0.07 | 0.06 | 64 | 1007.8 |
| 20260504024505 | 40 | 276 | 0.0 | 0.0 | 0.00 | 0.07 | 0.06 | 64 | 1008.8 |
| 20260504024153 | 40 | 276 | 0.0 | 0.0 | 0.00 | 0.07 | 0.06 | 64 | 1007.8 |
| 20260504023143 | 40 | 276 | 0.0 | 0.0 | 0.00 | 0.07 | 0.06 | 66 | 1007.8 |
| 20260504023056 | 39 | 276 | 0.0 | 0.0 | 0.00 | 0.07 | 0.06 | 66 | 1008.8 |
| 20260504022640 | 40 | 276 | 0.0 | 0.0 | 0.00 | 0.07 | 0.06 | 66 | 1007.7 |
| 20260504021655 | 40 | 276 | 0.0 | 0.0 | 0.00 | 0.07 | 0.06 | 67 | 1008.9 |
| 20260504021637 | 40 | 276 | 0.0 | 0.0 | 0.00 | 0.07 | 0.06 | 67 | 1007.9 |
| 20260504021135 | 41 | 276 | 0.0 | 0.0 | 0.00 | 0.07 | 0.06 | 66 | 1007.8 |
| 20260504020632 | 41 | 276 | 1.0 | 2.0 | 0.00 | 0.07 | 0.06 | 66 | 1007.8 |
| 20260504020131 | 42 | 276 | 1.0 | 2.0 | 0.00 | 0.07 | 0.06 | 63 | 1007.7 |
| 20260504020037 | 41 | 276 | 0.0 | 2.0 | 0.00 | 0.07 | 0.06 | 61 | 1008.7 |
| 20260504015130 | 42 | 276 | 1.0 | 2.0 | 0.00 | 0.07 | 0.06 | 62 | 1007.9 |
| 20260504014633 | 41 | 276 | 0.0 | 3.0 | 0.00 | 0.07 | 0.06 | 64 | 1008.8 |
| 20260504014629 | 42 | 276 | 2.0 | 3.0 | 0.00 | 0.07 | 0.06 | 64 | 1007.8 |
| 20260504014129 | 42 | 276 | 2.0 | 3.0 | 0.00 | 0.07 | 0.06 | 61 | 1007.9 |
| 20260504013630 | 42 | 276 | 1.0 | 3.0 | 0.00 | 0.07 | 0.06 | 61 | 1007.9 |
| 20260504013128 | 42 | 276 | 0.0 | 1.0 | 0.00 | 0.07 | 0.06 | 62 | 1008.0 |
| 20260504013037 | 41 | 276 | 0.0 | 1.0 | 0.00 | 0.07 | 0.06 | 63 | 1008.8 |
| 20260504011627 | 41 | 276 | 0.0 | 3.0 | 0.00 | 0.07 | 0.06 | 62 | 1008.6 |
| 20260504011617 | 42 | 276 | 1.0 | 3.0 | 0.00 | 0.07 | 0.06 | 63 | 1007.7 |
| 20260504011111 | 42 | 276 | 1.0 | 3.0 | 0.00 | 0.07 | 0.06 | 61 | 1007.6 |